Time,TemperatureF,DewpointF,PressureIn,WindDirection,WindDirectionDegrees,WindSpeedMPH,WindSpeedGustMPH,Humidity,HourlyPrecipIn,Conditions,Clouds,dailyrainin,SoftwareType,DateUTC
2013-02-14 00:00:00,15.4,13.0,30.20,South,183,6.0,-999.0,91,-99.99,,,0.00,weatherlink.com 1.10,2013-02-14 07:00:00,
2013-02-14 00:15:00,15.3,13.0,30.20,SW,234,9.0,-999.0,91,-99.99,,,0.00,weatherlink.com 1.10,2013-02-14 07:15:00,
2013-02-14 00:30:00,15.3,13.0,30.21,SW,219,11.0,-999.0,91,-99.99,,,0.00,weatherlink.com 1.10,2013-02-14 07:30:00,
2013-02-14 00:45:00,15.2,13.0,30.20,SSW,212,6.0,-999.0,91,-99.99,,,0.00,weatherlink.com 1.10,2013-02-14 07:45:00,
2013-02-14 01:00:00,15.0,13.0,30.19,WSW,241,7.0,-999.0,91,-99.99,,,0.00,weatherlink.com 1.10,2013-02-14 08:00:00,
2013-02-14 01:16:00,14.8,13.0,30.19,SSW,196,13.0,-999.0,91,-99.99,,,0.00,weatherlink.com 1.10,2013-02-14 08:16:00,
2013-02-14 01:31:00,14.8,13.0,30.18,SSW,212,14.0,-999.0,91,-99.99,,,0.00,weatherlink.com 1.10,2013-02-14 08:31:00,
2013-02-14 01:46:00,14.6,13.0,30.17,South,180,10.0,-999.0,91,-99.99,,,0.00,weatherlink.com 1.10,2013-02-14 08:46:00,
2013-02-14 02:01:00,14.7,13.0,30.17,SW,217,20.0,-999.0,91,-99.99,,,0.00,weatherlink.com 1.10,2013-02-14 09:01:00,
2013-02-14 02:16:00,14.8,13.0,30.17,SW,215,14.0,-999.0,91,-99.99,,,0.00,weatherlink.com 1.10,2013-02-14 09:16:00,
2013-02-14 02:31:00,14.7,13.0,30.16,SSW,206,18.0,-999.0,91,-99.99,,,0.00,weatherlink.com 1.10,2013-02-14 09:31:00,
2013-02-14 02:47:00,14.8,13.0,30.15,SW,225,15.0,-999.0,91,-99.99,,,0.00,weatherlink.com 1.10,2013-02-14 09:47:00,
2013-02-14 03:02:00,14.9,13.0,30.15,SW,234,17.0,-999.0,91,-99.99,,,0.00,weatherlink.com 1.10,2013-02-14 10:02:00,
2013-02-14 03:17:00,14.9,13.0,30.14,SSW,192,17.0,-999.0,91,-99.99,,,0.00,weatherlink.com 1.10,2013-02-14 10:17:00,
2013-02-14 03:32:00,14.7,12.0,30.14,WSW,250,22.0,-999.0,90,-99.99,,,0.00,weatherlink.com 1.10,2013-02-14 10:32:00,
2013-02-14 03:47:00,14.5,12.0,30.14,WSW,253,16.0,-999.0,90,-99.99,,,0.00,weatherlink.com 1.10,2013-02-14 10:47:00,
2013-02-14 04:02:00,14.5,12.0,30.14,SW,220,14.0,-999.0,90,-99.99,,,0.00,weatherlink.com 1.10,2013-02-14 11:02:00,
2013-02-14 04:17:00,14.5,12.0,30.13,SW,215,18.0,-999.0,90,-99.99,,,0.00,weatherlink.com 1.10,2013-02-14 11:17:00,
2013-02-14 04:33:00,14.5,12.0,30.13,WSW,237,16.0,-999.0,90,-99.99,,,0.00,weatherlink.com 1.10,2013-02-14 11:33:00,
2013-02-14 04:48:00,14.4,12.0,30.14,SSW,205,13.0,-999.0,90,-99.99,,,0.00,weatherlink.com 1.10,2013-02-14 11:48:00,
2013-02-14 05:03:00,14.4,12.0,30.14,SW,224,18.0,-999.0,91,-99.99,,,0.00,weatherlink.com 1.10,2013-02-14 12:03:00,
2013-02-14 05:18:00,14.4,12.0,30.14,SW,232,20.0,-999.0,91,-99.99,,,0.00,weatherlink.com 1.10,2013-02-14 12:18:00,
2013-02-14 05:33:00,14.3,12.0,30.13,SW,227,17.0,-999.0,90,-99.99,,,0.00,weatherlink.com 1.10,2013-02-14 12:33:00,
2013-02-14 05:48:00,14.3,12.0,30.13,WSW,254,13.0,-999.0,90,-99.99,,,0.00,weatherlink.com 1.10,2013-02-14 12:48:00,
2013-02-14 06:04:00,14.5,12.0,30.13,WNW,283,16.0,-999.0,90,-99.99,,,0.00,weatherlink.com 1.10,2013-02-14 13:04:00,
2013-02-14 06:19:00,14.5,12.0,30.14,WSW,246,16.0,-999.0,91,-99.99,,,0.00,weatherlink.com 1.10,2013-02-14 13:19:00,
2013-02-14 06:34:00,14.5,12.0,30.13,SW,235,14.0,-999.0,90,-99.99,,,0.00,weatherlink.com 1.10,2013-02-14 13:34:00,
2013-02-14 06:49:00,14.6,13.0,30.13,SW,223,14.0,-999.0,91,-99.99,,,0.00,weatherlink.com 1.10,2013-02-14 13:49:00,
2013-02-14 07:04:00,14.5,12.0,30.14,WSW,252,13.0,-999.0,90,-99.99,,,0.00,weatherlink.com 1.10,2013-02-14 14:04:00,
2013-02-14 07:19:00,14.4,12.0,30.16,NW,311,8.0,-999.0,90,-99.99,,,0.00,weatherlink.com 1.10,2013-02-14 14:19:00,
2013-02-14 07:35:00,14.5,12.0,30.18,SW,234,8.0,-999.0,90,-99.99,,,0.00,weatherlink.com 1.10,2013-02-14 14:35:00,
2013-02-14 07:50:00,14.6,12.0,30.20,West,270,7.0,-999.0,90,-99.99,,,0.00,weatherlink.com 1.10,2013-02-14 14:50:00,
2013-02-14 08:05:00,14.7,12.0,30.21,WNW,286,12.0,-999.0,90,-99.99,,,0.00,weatherlink.com 1.10,2013-02-14 15:05:00,
2013-02-14 08:20:00,14.5,12.0,30.21,West,275,2.0,-999.0,90,-99.99,,,0.00,weatherlink.com 1.10,2013-02-14 15:20:00,
2013-02-14 08:35:00,14.9,13.0,30.22,NNW,333,0.0,-999.0,91,-99.99,,,0.00,weatherlink.com 1.10,2013-02-14 15:35:00,
2013-02-14 08:50:00,15.2,13.0,30.23,West,278,3.0,-999.0,91,-99.99,,,0.00,weatherlink.com 1.10,2013-02-14 15:50:00,
2013-02-14 09:06:00,15.3,13.0,30.23,WSW,243,4.0,-999.0,90,-99.99,,,0.00,weatherlink.com 1.10,2013-02-14 16:06:00,
2013-02-14 09:21:00,15.6,14.0,30.23,WSW,243,6.0,-999.0,91,-99.99,,,0.00,weatherlink.com 1.10,2013-02-14 16:21:00,
2013-02-14 09:36:00,15.9,14.0,30.23,West,264,8.0,-999.0,91,-99.99,,,0.00,weatherlink.com 1.10,2013-02-14 16:36:00,
2013-02-14 09:51:00,16.1,14.0,30.24,WSW,248,8.0,-999.0,91,-99.99,,,0.00,weatherlink.com 1.10,2013-02-14 16:51:00,
2013-02-14 10:06:00,12.5,10.0,30.24,North,360,4.0,-999.0,88,-99.99,,,0.00,weatherlink.com 1.10,2013-02-14 17:06:00,
2013-02-14 10:21:00,12.5,10.0,30.25,West,270,9.0,-999.0,89,-99.99,,,0.00,weatherlink.com 1.10,2013-02-14 17:21:00,
2013-02-14 10:37:00,14.4,12.0,30.25,West,261,8.0,-999.0,90,-99.99,,,0.00,weatherlink.com 1.10,2013-02-14 17:37:00,
2013-02-14 10:52:00,12.4,10.0,30.26,NW,311,7.0,-999.0,89,-99.99,,,0.00,weatherlink.com 1.10,2013-02-14 17:52:00,
2013-02-14 11:07:00,11.0,8.0,30.25,North,360,9.0,-999.0,88,-99.99,,,0.00,weatherlink.com 1.10,2013-02-14 18:07:00,
2013-02-14 11:22:00,10.9,8.0,30.26,NNW,344,9.0,-999.0,89,-99.99,,,0.00,weatherlink.com 1.10,2013-02-14 18:22:00,
2013-02-14 11:37:00,9.7,7.0,30.26,NNW,342,7.0,-999.0,88,-99.99,,,0.00,weatherlink.com 1.10,2013-02-14 18:37:00,
2013-02-14 11:52:00,10.1,8.0,30.26,NNW,340,9.0,-999.0,89,-99.99,,,0.00,weatherlink.com 1.10,2013-02-14 18:52:00,
2013-02-14 12:08:00,9.5,7.0,30.26,North,349,9.0,-999.0,88,-99.99,,,0.00,weatherlink.com 1.10,2013-02-14 19:08:00,
2013-02-14 12:23:00,9.2,6.0,30.27,North,360,8.0,-999.0,88,-99.99,,,0.00,weatherlink.com 1.10,2013-02-14 19:23:00,
2013-02-14 12:38:00,10.1,8.0,30.27,NNW,336,5.0,-999.0,89,-99.99,,,0.00,weatherlink.com 1.10,2013-02-14 19:38:00,
2013-02-14 12:53:00,11.0,8.0,30.26,NNW,340,6.0,-999.0,89,-99.99,,,0.00,weatherlink.com 1.10,2013-02-14 19:53:00,
2013-02-14 13:08:00,11.5,9.0,30.27,North,350,3.0,-999.0,89,-99.99,,,0.00,weatherlink.com 1.10,2013-02-14 20:08:00,
2013-02-14 13:23:00,11.4,9.0,30.27,North,355,4.0,-999.0,89,-99.99,,,0.00,weatherlink.com 1.10,2013-02-14 20:23:00,
2013-02-14 13:39:00,12.5,10.0,30.28,North,350,6.0,-999.0,89,-99.99,,,0.00,weatherlink.com 1.10,2013-02-14 20:39:00,
2013-02-14 13:54:00,11.3,9.0,30.28,North,360,3.0,-999.0,89,-99.99,,,0.00,weatherlink.com 1.10,2013-02-14 20:54:00,
2013-02-14 14:09:00,12.4,10.0,30.29,NW,311,3.0,-999.0,90,-99.99,,,0.00,weatherlink.com 1.10,2013-02-14 21:09:00,
2013-02-14 14:24:00,12.5,10.0,30.29,NNW,338,5.0,-999.0,89,-99.99,,,0.00,weatherlink.com 1.10,2013-02-14 21:24:00,
2013-02-14 14:39:00,11.7,9.0,30.29,WNW,294,3.0,-999.0,89,-99.99,,,0.00,weatherlink.com 1.10,2013-02-14 21:39:00,
2013-02-14 14:54:00,12.4,10.0,30.30,WNW,295,5.0,-999.0,90,-99.99,,,0.00,weatherlink.com 1.10,2013-02-14 21:54:00,
2013-02-14 15:11:00,12.0,9.0,30.30,WNW,283,5.0,-999.0,89,-99.99,,,0.00,weatherlink.com 1.10,2013-02-14 22:11:00,
2013-02-14 15:25:00,12.1,10.0,30.30,SW,221,4.0,-999.0,90,-99.99,,,0.00,weatherlink.com 1.10,2013-02-14 22:25:00,
2013-02-14 15:40:00,12.7,10.0,30.31,SW,217,1.0,-999.0,90,-99.99,,,0.00,weatherlink.com 1.10,2013-02-14 22:40:00,
2013-02-14 15:55:00,12.0,9.0,30.31,West,277,3.0,-999.0,89,-99.99,,,0.00,weatherlink.com 1.10,2013-02-14 22:55:00,
2013-02-14 16:10:00,11.6,9.0,30.31,WNW,288,5.0,-999.0,89,-99.99,,,0.00,weatherlink.com 1.10,2013-02-14 23:10:00,
2013-02-14 16:25:00,11.3,9.0,30.31,West,259,9.0,-999.0,89,-99.99,,,0.00,weatherlink.com 1.10,2013-02-14 23:25:00,
2013-02-14 16:41:00,11.4,9.0,30.32,West,272,6.0,-999.0,89,-99.99,,,0.00,weatherlink.com 1.10,2013-02-14 23:41:00,
2013-02-14 16:56:00,11.5,9.0,30.32,West,273,8.0,-999.0,89,-99.99,,,0.00,weatherlink.com 1.10,2013-02-14 23:56:00,
2013-02-14 17:11:00,11.4,9.0,30.32,WSW,238,8.0,-999.0,89,-99.99,,,0.00,weatherlink.com 1.10,2013-02-15 00:11:00,
2013-02-14 17:26:00,11.1,9.0,30.32,SW,215,7.0,-999.0,89,-99.99,,,0.00,weatherlink.com 1.10,2013-02-15 00:26:00,
2013-02-14 17:41:00,11.3,9.0,30.32,West,276,8.0,-999.0,89,-99.99,,,0.00,weatherlink.com 1.10,2013-02-15 00:41:00,
2013-02-14 17:56:00,11.4,9.0,30.32,WNW,284,8.0,-999.0,89,-99.99,,,0.00,weatherlink.com 1.10,2013-02-15 00:56:00,
2013-02-14 18:12:00,11.3,9.0,30.33,WNW,287,14.0,-999.0,89,-99.99,,,0.00,weatherlink.com 1.10,2013-02-15 01:12:00,
2013-02-14 18:27:00,11.2,9.0,30.33,WNW,294,12.0,-999.0,89,-99.99,,,0.00,weatherlink.com 1.10,2013-02-15 01:27:00,
2013-02-14 18:42:00,11.3,9.0,30.34,NW,304,7.0,-999.0,89,-99.99,,,0.00,weatherlink.com 1.10,2013-02-15 01:42:00,
2013-02-14 18:57:00,11.3,9.0,30.34,WNW,294,7.0,-999.0,89,-99.99,,,0.00,weatherlink.com 1.10,2013-02-15 01:57:00,
2013-02-14 19:12:00,11.3,9.0,30.34,WNW,293,4.0,-999.0,89,-99.99,,,0.00,weatherlink.com 1.10,2013-02-15 02:12:00,
2013-02-14 19:27:00,11.4,9.0,30.34,WNW,289,4.0,-999.0,89,-99.99,,,0.00,weatherlink.com 1.10,2013-02-15 02:27:00,
2013-02-14 19:43:00,11.5,9.0,30.34,West,273,4.0,-999.0,89,-99.99,,,0.00,weatherlink.com 1.10,2013-02-15 02:43:00,
2013-02-14 19:58:00,11.3,9.0,30.33,WSW,257,5.0,-999.0,89,-99.99,,,0.00,weatherlink.com 1.10,2013-02-15 02:58:00,
2013-02-14 20:13:00,11.5,9.0,30.32,West,279,9.0,-999.0,90,-99.99,,,0.00,weatherlink.com 1.10,2013-02-15 03:13:00,
2013-02-14 20:28:00,11.6,9.0,30.32,WSW,258,7.0,-999.0,90,-99.99,,,0.00,weatherlink.com 1.10,2013-02-15 03:28:00,
2013-02-14 20:43:00,11.6,9.0,30.32,West,263,9.0,-999.0,90,-99.99,,,0.00,weatherlink.com 1.10,2013-02-15 03:43:00,
2013-02-14 20:58:00,11.8,10.0,30.32,West,278,10.0,-999.0,90,-99.99,,,0.00,weatherlink.com 1.10,2013-02-15 03:58:00,
2013-02-14 21:13:00,12.0,10.0,30.33,West,259,13.0,-999.0,90,-99.99,,,0.00,weatherlink.com 1.10,2013-02-15 04:13:00,
2013-02-14 21:29:00,12.1,10.0,30.33,WNW,297,6.0,-999.0,90,-99.99,,,0.00,weatherlink.com 1.10,2013-02-15 04:29:00,
2013-02-14 21:45:00,11.9,10.0,30.33,West,275,10.0,-999.0,90,-99.99,,,0.00,weatherlink.com 1.10,2013-02-15 04:45:00,
2013-02-14 21:59:00,11.8,10.0,30.34,WNW,299,8.0,-999.0,90,-99.99,,,0.00,weatherlink.com 1.10,2013-02-15 04:59:00,
2013-02-14 22:14:00,11.9,10.0,30.33,SW,236,7.0,-999.0,90,-99.99,,,0.00,weatherlink.com 1.10,2013-02-15 05:14:00,
2013-02-14 22:29:00,11.7,9.0,30.34,WNW,283,7.0,-999.0,90,-99.99,,,0.00,weatherlink.com 1.10,2013-02-15 05:29:00,
2013-02-14 22:44:00,11.7,9.0,30.34,West,277,4.0,-999.0,90,-99.99,,,0.00,weatherlink.com 1.10,2013-02-15 05:44:00,
2013-02-14 22:59:00,11.7,9.0,30.34,SW,232,7.0,-999.0,90,-99.99,,,0.00,weatherlink.com 1.10,2013-02-15 05:59:00,
2013-02-14 23:15:00,11.6,9.0,30.35,WNW,297,6.0,-999.0,90,-99.99,,,0.00,weatherlink.com 1.10,2013-02-15 06:15:00,
2013-02-14 23:30:00,11.4,9.0,30.35,WNW,285,6.0,-999.0,89,-99.99,,,0.00,weatherlink.com 1.10,2013-02-15 06:30:00,
2013-02-14 23:45:00,11.3,9.0,30.36,WNW,287,4.0,-999.0,89,-99.99,,,0.00,weatherlink.com 1.10,2013-02-15 06:45:00,